Location: Evergreen Manor
(41.4083°N, 81.4939°W)
Time: 02:14:39
(UTC+00:00)

Cosmos 2263 Rocket - Pass Details

Date: 11 December 2019
Orbit: 824 x 848 km, 71.0° (Epoch: 22 January)

Event Time Altitude Azimuth Distance (km) Brightness Sun altitude
Exits shadow 11:27:43 - 240° (WSW) 2,846 4.6 -13.4°
Reaches altitude 10° 11:29:00 10° 247° (WSW) 2,427 4.2 -13.2°
Maximum altitude 11:33:43 28° 305° (NW) 1,518 3.0 -12.4°
Drops below altitude 10° 11:38:26 10° 3° (N) 2,432 4.4 -11.5°
Sets 11:41:15 0° 15° (NNE) 3,369 5.3 -11.1°
